Simultaneous Nadir Overpasses (SNOs) Predictions

Prediction of SNOs between GOES-16 and METOP-B Satellite Orbit:

Table of predicted SNOs for the next 14.0 days since TLE Epoch: 10/24/2020
Index Date Time (GOES-16) GOES-16 Lat,Lon METOP-B Lat,Lon Distance(km) Time Diff (sec)
1 10/24/2020 14:30:28 -0.03, -75.19 -0.10, -74.78 45.98 80
2 10/26/2020 02:49:29 0.02, -75.17 -0.90, -79.38 479.45 80
3 10/27/2020 02:26:10 0.02, -75.17 0.18, -74.38 90.07 80
4 10/28/2020 14:45:03 -0.02, -75.20 0.79, -78.95 426.67 80
5 10/29/2020 14:24:23 -0.02, -75.21 -0.29, -73.95 143.30 80
6 10/31/2020 02:46:05 0.02, -75.20 -0.71, -78.55 380.75 80
7 11/01/2020 02:22:45 0.02, -75.21 0.38, -73.55 189.45 80
8 11/02/2020 14:41:39 -0.02, -75.25 0.60, -78.12 326.51 80
9 11/03/2020 14:23:39 -0.01, -75.26 -0.48, -73.12 243.92 80
10 11/05/2020 02:42:39 0.01, -75.26 -0.56, -77.71 279.47 80
11 11/06/2020 02:19:21 0.00, -75.27 0.58, -72.72 291.07 80
